Back to catalog

THOR ABLESTAR R/B

AlivePO
NORAD 703·ROCKET BODY·🇺🇸 United States

Launched Dec 5, 1963 from Vandenberg Space Force Base

Loading…

Next Passes (next 24 hours)

TLE

FreshSource: Space-Track

Epoch: Sep 14, 2026, 10:27 UTC

1 00703U 63049A   26257.43564321  .00000025  00000-0  24686-4 0  9999
2 00703  89.9209  69.5117 0016657  19.2986   9.1011 13.50005679 91309

Track THOR ABLESTAR R/B in real time with AllMySat

Download on the App Store